"SCET";"TARGET";"ELECTRON_DENSITY";"ERROR_FLAG";"ELECTRON_DENSITY_ERROR";"FREQ_FCE";"MEASURED_VALUE";"MEASURED_ITEM";"FREQ_PLASMA";"FREQ_UPPER_HYBRID";"FREQ_R_EQUALS_ZERO";"FREQ_L_EQUALS_ZERO";"ORBIT_NUMBER";"SATURN_RADIUS";"SATURN_IAU_LONGITUDE";"SATURN_SLS4_S_LONGITUDE";"SATURN_SLS4_N_LONGITUDE";"SATURN_SLS5_S_LONGITUDE";"SATURN_SLS5_N_LONGITUDE";"SATURN_LOCAL_TIME";"SATURN_KRONOGRAPHIC_LATITUDE";"SATURN_MAGNETIC_LATITUDE";"SATURN_L";"SATURN_L_OFFSET";"SATURN_SOLAR_EQUATORIAL_X";"SATURN_SOLAR_EQUATORIAL_Y";"SATURN_SOLAR_EQUATORIAL_Z";"SATURN_ALTITUDE";"ENCELADUS_ENCOUNTER_NUMBER";"ENCELADUS_RADIUS";"ENCELADUS_COROTATIONAL_X";"ENCELADUS_COROTATIONAL_Y";"ENCELADUS_COROTATIONAL_Z";"ENCELADUS_TRUE_ANOMALY";"ENCELADUS_PERIAPSIS_TIME";"JUPITER_RADIUS";"JUPITER_SYSTEMIII_LONGITUDE";"JUPITER_MAGNETIC_LATITUDE";"JUPITER_MAGNETIC_LOCAL_TIME";"JUPITER_L";"IO_PHASE";"EARTH_RADIUS";"EARTH_MAGNETIC_LATITUDE";"EARTH_LOCAL_TIME";"EARTH_L"
"[UTC]";"[0=Saturn, 1=Enceladus, 2=Jupiter, 3=Earth]";"[cm-3]";"[0=automated, 1=manual]";"[normalized density error]";"[Hz]";"[Hz]";"[0=upper hybrid frequency, 1=plasma frequency cutoff]";"[Hz]";"[Hz]";"[Hz]";"[Hz}";"[0, A, B, C, 3, 4, ... , 292, 293]";"[Rs where 1Rs=60268km]";"[degrees]";"[degrees]";"[degrees]";"[degrees]";"[degrees]";"[hours]";"[degrees]";"[degrees where offset=2293km north]";"[Rs where 1Rs=60268km]";"[Rs where 1Rs=60268km and offset=2293km north]";"[Rs where 1Rs=60268km]";"[Rs where 1Rs=60268km]";"[Rs where 1Rs=60268km]";"[km where ellipsoid a,b=60268km and c=54364km]";"[E0, E1, E2, ... , E21, E22]";"[Renc where 1Renc=252.1km]";"[Renc where 1Renc=252.1km]";"[Renc where 1Renc=252.1km]";"[Renc where 1Renc=252.1km]";"[degrees]";"[UTC]";"[Rj where 1Rj=71492km]";"[degrees]";"[degrees using JRM09 model]";"[hours using JRM09 model]";"[Rj where 1Rj=71492km]";"[degrees]";"[Re where 1Re=6378.1366km]";"[degrees]";"[hours]";"[Re where 1Re=6378.1366km]"
2007-05-26T20:46:06.107Z;0;1.1730e+01;0;     0.108;  7892.780;  31751.555; 0;  30754.922;  31751.555;  34953.473;  27060.693; 45;   4.240; 122.129; 279.541; 243.369; 251.868; 245.378;  23.988;  12.574;  12.071;   4.451;   4.228;  -4.138;   0.013;   0.923;;;;;;;;;;;;;;;;;;
2007-05-26T20:46:22.106Z;0;1.0810e+01;0;     0.124;  7892.780;  30556.357; 0;  29519.400;  30556.357;  33728.414;  25835.635; 45;   4.238; 122.232; 279.640; 243.472; 251.967; 245.483;  23.991;  12.551;  12.048;   4.448;   4.226;  -4.137;   0.010;   0.921;;;;;;;;;;;;;;;;;;
2007-05-26T20:46:30.106Z;0;1.0630e+01;0;     0.112;  7892.780;  30317.420; 0;  29272.000;  30317.420;  33483.215;  25590.434; 45;   4.237; 122.283; 279.690; 243.524; 252.016; 245.535;  23.992;  12.540;  12.037;   4.447;   4.225;  -4.136;   0.008;   0.920;;;;;;;;;;;;;;;;;;
2007-05-26T20:46:38.106Z;0;1.0730e+01;0;     0.129;  7892.780;  30458.551; 0;  29418.146;  30458.551;  33628.059;  25735.277; 45;   4.236; 122.334; 279.740; 243.576; 252.066; 245.587;  23.994;  12.529;  12.026;   4.445;   4.224;  -4.135;   0.006;   0.919;;;;;;;;;;;;;;;;;;
2007-05-26T20:46:46.106Z;0;1.0590e+01;0;     0.111;  7892.780;  30271.184; 0;  29224.109;  30271.184;  33435.754;  25542.973; 45;   4.235; 122.385; 279.790; 243.627; 252.115; 245.640;  23.996;  12.518;  12.014;   4.444;   4.223;  -4.134;   0.005;   0.918;;;;;;;;;;;;;;;;;;
2007-05-26T20:46:54.106Z;0;1.1180e+01;0;     0.123;  7892.780;  31042.217; 0;  30022.047;  31042.217;  34226.703;  26333.922; 45;   4.234; 122.436; 279.840; 243.679; 252.165; 245.692;  23.997;  12.506;  12.003;   4.442;   4.222;  -4.134;   0.003;   0.917;;;;;;;;;;;;;;;;;;
2007-05-26T20:47:10.106Z;0;1.0470e+01;0;     0.109;  7927.976;  30122.236; 0;  29060.219;  30122.236;  33293.316;  25365.340; 45;   4.232; 122.538; 279.940; 243.782; 252.263; 245.797;   0.000;  12.484;  11.980;   4.439;   4.220;  -4.132;  -0.001;   0.915;;;;;;;;;;;;;;;;;;
2007-05-26T20:47:18.106Z;0;1.0550e+01;0;     0.113;  7927.976;  30221.641; 0;  29163.244;  30221.641;  33395.398;  25467.424; 45;   4.231; 122.589; 279.989; 243.834; 252.313; 245.849;   0.002;  12.472;  11.969;   4.438;   4.219;  -4.131;  -0.002;   0.914;;;;;;;;;;;;;;;;;;
2007-05-26T20:47:26.106Z;0;1.0450e+01;0;     0.109;  7927.976;  30093.307; 0;  29030.230;  30093.307;  33263.605;  25335.629; 45;   4.230; 122.640; 280.039; 243.885; 252.362; 245.901;   0.004;  12.461;  11.957;   4.437;   4.218;  -4.130;  -0.004;   0.913;;;;;;;;;;;;;;;;;;
2007-05-26T20:47:34.106Z;0;1.1000e+01;0;     0.118;  7927.976;  30815.340; 0;  29778.053;  30815.340;  34004.719;  26076.744; 45;   4.229; 122.691; 280.089; 243.937; 252.411; 245.953;   0.005;  12.450;  11.946;   4.435;   4.217;  -4.130;  -0.006;   0.912;;;;;;;;;;;;;;;;;;
2007-05-26T20:47:42.106Z;0;1.0440e+01;0;     0.094;  7927.976;  30080.572; 0;  29017.029;  30080.572;  33250.523;  25322.549; 45;   4.228; 122.742; 280.139; 243.988; 252.461; 246.006;   0.007;  12.439;  11.934;   4.434;   4.216;  -4.129;  -0.008;   0.911;;;;;;;;;;;;;;;;;;
2007-05-26T20:47:58.106Z;0;1.0810e+01;0;     0.111;  7927.976;  30577.023; 0;  29531.365;  30577.023;  33760.207;  25832.232; 45;   4.226; 122.844; 280.239; 244.091; 252.559; 246.111;   0.010;  12.416;  11.911;   4.431;   4.214;  -4.127;  -0.011;   0.909;;;;;;;;;;;;;;;;;;
2007-05-26T20:48:06.106Z;0;1.0890e+01;0;     0.104;  7963.872;  30680.348; 0;  29628.711;  30680.348;  33877.023;  25913.152; 45;   4.225; 122.895; 280.288; 244.143; 252.609; 246.163;   0.012;  12.405;  11.900;   4.429;   4.213;  -4.126;  -0.013;   0.908;;;;;;;;;;;;;;;;;;
2007-05-26T20:48:14.106Z;0;1.0350e+01;0;     0.096;  7963.872;  29973.719; 0;  28896.377;  29973.719;  33151.379;  25187.506; 45;   4.224; 122.946; 280.338; 244.195; 252.658; 246.215;   0.013;  12.393;  11.888;   4.428;   4.212;  -4.126;  -0.014;   0.906;;;;;;;;;;;;;;;;;;
2007-05-26T20:48:22.106Z;0;1.0850e+01;0;     0.100;  7963.872;  30631.232; 0;  29577.850;  30631.232;  33826.617;  25862.744; 45;   4.223; 122.997; 280.388; 244.246; 252.707; 246.268;   0.015;  12.382;  11.877;   4.427;   4.211;  -4.125;  -0.016;   0.905;;;;;;;;;;;;;;;;;;
2007-05-26T20:48:30.106Z;0;1.0890e+01;0;     0.103;  7963.872;  30688.074; 0;  29636.711;  30688.074;  33884.953;  25921.082; 45;   4.222; 123.048; 280.438; 244.298; 252.756; 246.320;   0.016;  12.371;  11.865;   4.425;   4.210;  -4.124;  -0.018;   0.904;;;;;;;;;;;;;;;;;;
2007-05-26T20:48:46.105Z;0;1.0890e+01;0;     0.102;  7963.872;  30685.000; 0;  29633.527;  30685.000;  33881.797;  25917.926; 45;   4.220; 123.150; 280.537; 244.400; 252.855; 246.425;   0.020;  12.348;  11.842;   4.422;   4.208;  -4.122;  -0.021;   0.902;;;;;;;;;;;;;;;;;;
2007-05-26T20:48:54.105Z;0;1.0910e+01;0;     0.106;  7963.872;  30709.432; 0;  29658.826;  30709.432;  33906.871;  25942.998; 45;   4.219; 123.201; 280.587; 244.452; 252.904; 246.477;   0.021;  12.337;  11.831;   4.421;   4.207;  -4.122;  -0.023;   0.901;;;;;;;;;;;;;;;;;;
2007-05-26T20:49:02.105Z;0;1.0890e+01;0;     0.105;  7999.628;  30693.379; 0;  29632.574;  30693.379;  33901.117;  25901.490; 45;   4.218; 123.252; 280.637; 244.503; 252.953; 246.530;   0.023;  12.325;  11.819;   4.419;   4.206;  -4.121;  -0.025;   0.900;;;;;;;;;;;;;;;;;;
2007-05-26T20:49:10.105Z;0;1.0850e+01;0;     0.101;  7999.628;  30641.832; 0;  29579.180;  30641.832;  33848.203;  25848.576; 45;   4.217; 123.303; 280.686; 244.555; 253.003; 246.582;   0.024;  12.314;  11.808;   4.418;   4.205;  -4.120;  -0.027;   0.899;;;;;;;;;;;;;;;;;;
2007-05-26T20:49:18.105Z;0;1.0850e+01;0;     0.106;  7999.628;  30639.406; 0;  29576.666;  30639.406;  33845.711;  25846.086; 45;   4.216; 123.354; 280.736; 244.606; 253.052; 246.635;   0.026;  12.302;  11.796;   4.417;   4.204;  -4.119;  -0.028;   0.898;;;;;;;;;;;;;;;;;;
2007-05-26T20:49:34.105Z;0;1.0420e+01;0;     0.112;  7999.628;  30077.229; 0;  28993.889;  30077.229;  33268.297;  25268.670; 45;   4.214; 123.456; 280.835; 244.709; 253.150; 246.739;   0.029;  12.280;  11.773;   4.414;   4.202;  -4.118;  -0.032;   0.896;;;;;;;;;;;;;;;;;;
2007-05-26T20:49:42.105Z;0;1.0890e+01;0;     0.104;  7999.628;  30694.480; 0;  29633.715;  30694.480;  33902.250;  25902.621; 45;   4.213; 123.507; 280.885; 244.761; 253.199; 246.792;   0.031;  12.268;  11.762;   4.412;   4.201;  -4.117;  -0.034;   0.895;;;;;;;;;;;;;;;;;;
2007-05-26T20:49:50.105Z;0;1.0810e+01;0;     0.102;  7999.628;  30595.219; 0;  29530.889;  30595.219;  33800.348;  25800.721; 45;   4.212; 123.558; 280.935; 244.812; 253.249; 246.844;   0.033;  12.257;  11.750;   4.411;   4.200;  -4.116;  -0.035;   0.894;;;;;;;;;;;;;;;;;;
2007-05-26T20:49:58.105Z;0;1.0840e+01;0;     0.104;  7999.628;  30625.889; 0;  29562.662;  30625.889;  33831.836;  25832.207; 45;   4.211; 123.608; 280.984; 244.863; 253.298; 246.897;   0.034;  12.245;  11.739;   4.409;   4.199;  -4.115;  -0.037;   0.893;;;;;;;;;;;;;;;;;;
2007-05-26T20:50:06.105Z;0;1.0810e+01;0;     0.099;  8035.468;  30598.818; 0;  29524.887;  30598.818;  33814.734;  25779.266; 45;   4.210; 123.659; 281.034; 244.915; 253.347; 246.949;   0.036;  12.234;  11.727;   4.408;   4.198;  -4.114;  -0.039;   0.892;;;;;;;;;;;;;;;;;;
2007-05-26T20:50:22.105Z;0;1.0860e+01;0;     0.101;  8035.468;  30659.080; 0;  29587.336;  30659.080;  33876.613;  25841.145; 45;   4.208; 123.761; 281.133; 245.018; 253.447; 247.052;   0.039;  12.211;  11.704;   4.405;   4.196;  -4.113;  -0.042;   0.890;;;;;;;;;;;;;;;;;;
2007-05-26T20:50:30.105Z;0;1.0880e+01;0;     0.098;  8035.468;  30694.330; 0;  29623.861;  30694.330;  33912.805;  25877.338; 45;   4.207; 123.812; 281.183; 245.069; 253.497; 247.104;   0.041;  12.199;  11.692;   4.404;   4.195;  -4.112;  -0.044;   0.889;;;;;;;;;;;;;;;;;;
2007-05-26T20:50:38.105Z;0;1.0900e+01;0;     0.104;  8035.468;  30712.650; 0;  29642.844;  30712.650;  33931.617;  25896.148; 45;   4.206; 123.863; 281.232; 245.120; 253.547; 247.156;   0.042;  12.188;  11.681;   4.402;   4.194;  -4.111;  -0.046;   0.888;;;;;;;;;;;;;;;;;;
2007-05-26T20:50:46.105Z;0;1.0820e+01;0;     0.101;  8035.468;  30605.699; 0;  29532.018;  30605.699;  33821.797;  25786.330; 45;   4.205; 123.913; 281.282; 245.172; 253.597; 247.208;   0.044;  12.176;  11.669;   4.401;   4.193;  -4.110;  -0.047;   0.887;;;;;;;;;;;;;;;;;;
2007-05-26T20:50:54.105Z;0;1.0840e+01;0;     0.101;  8035.468;  30635.053; 0;  29562.438;  30635.053;  33851.941;  25816.473; 45;   4.204; 123.964; 281.332; 245.223; 253.646; 247.260;   0.045;  12.165;  11.657;   4.399;   4.192;  -4.109;  -0.049;   0.886;;;;;;;;;;;;;;;;;;
2007-05-26T20:51:10.105Z;0;1.0960e+01;0;     0.113;  8071.532;  30805.123; 0;  29728.875;  30805.123;  34037.324;  25965.791; 45;   4.202; 124.066; 281.431; 245.326; 253.746; 247.363;   0.049;  12.142;  11.634;   4.397;   4.190;  -4.108;  -0.053;   0.884;;;;;;;;;;;;;;;;;;
2007-05-26T20:51:18.105Z;0;1.0870e+01;0;     0.108;  8071.532;  30686.219; 0;  29605.648;  30686.219;  33915.219;  25843.688; 45;   4.201; 124.117; 281.480; 245.377; 253.796; 247.415;   0.050;  12.130;  11.622;   4.395;   4.189;  -4.107;  -0.054;   0.883;;;;;;;;;;;;;;;;;;
2007-05-26T20:51:26.104Z;0;1.0540e+01;0;     0.107;  8071.532;  30256.281; 0;  29159.783;  30256.281;  33473.504;  25401.971; 45;   4.200; 124.167; 281.530; 245.428; 253.846; 247.466;   0.052;  12.119;  11.611;   4.394;   4.188;  -4.106;  -0.056;   0.882;;;;;;;;;;;;;;;;;;
2007-05-26T20:51:34.104Z;0;1.0600e+01;0;     0.106;  8071.532;  30330.854; 0;  29237.152;  30330.854;  33550.145;  25478.611; 45;   4.199; 124.218; 281.579; 245.479; 253.896; 247.518;   0.054;  12.107;  11.599;   4.392;   4.187;  -4.105;  -0.058;   0.881;;;;;;;;;;;;;;;;;;
2007-05-26T20:51:42.104Z;0;1.0140e+01;0;     0.103;  8071.532;  29708.967; 0;  28591.486;  29708.967;  32910.676;  24839.145; 45;   4.198; 124.269; 281.629; 245.531; 253.946; 247.570;   0.055;  12.096;  11.587;   4.391;   4.186;  -4.105;  -0.060;   0.880;;;;;;;;;;;;;;;;;;
2007-05-26T20:51:58.104Z;0;1.0690e+01;0;     0.118;  8071.532;  30453.912; 0;  29364.795;  30453.912;  33676.590;  25605.059; 45;   4.196; 124.370; 281.728; 245.633; 254.046; 247.673;   0.058;  12.073;  11.564;   4.388;   4.184;  -4.103;  -0.063;   0.878;;;;;;;;;;;;;;;;;;
2007-05-26T20:52:06.104Z;0;9.9740e+00;0;     0.100;  8108.240;  29496.545; 0;  28360.229;  29496.545;  32702.654;  24594.414; 45;   4.195; 124.421; 281.777; 245.684; 254.096; 247.725;   0.060;  12.061;  11.552;   4.387;   4.183;  -4.102;  -0.065;   0.877;;;;;;;;;;;;;;;;;;
2007-05-26T20:52:14.104Z;0;1.0500e+01;0;     0.125;  8108.240;  30200.762; 0;  29091.965;  30200.762;  33427.207;  25318.969; 45;   4.194; 124.472; 281.827; 245.736; 254.146; 247.777;   0.062;  12.050;  11.541;   4.385;   4.182;  -4.101;  -0.066;   0.875;;;;;;;;;;;;;;;;;;
2007-05-26T20:52:22.104Z;0;1.0060e+01;0;     0.103;  8108.240;  29608.654; 0;  28476.812;  29608.654;  32818.070;  24709.828; 45;   4.193; 124.522; 281.876; 245.787; 254.195; 247.828;   0.063;  12.038;  11.529;   4.384;   4.181;  -4.100;  -0.068;   0.874;;;;;;;;;;;;;;;;;;
2007-05-26T20:52:30.104Z;0;9.9580e+00;0;     0.100;  8108.240;  29475.307; 0;  28338.139;  29475.307;  32680.787;  24572.547; 45;   4.192; 124.573; 281.926; 245.838; 254.245; 247.880;   0.065;  12.027;  11.517;   4.383;   4.180;  -4.100;  -0.070;   0.873;;;;;;;;;;;;;;;;;;
2007-05-26T20:52:46.104Z;0;9.8740e+00;0;     0.093;  8108.240;  29360.123; 0;  28218.314;  29360.123;  32562.174;  24453.934; 45;   4.190; 124.674; 282.025; 245.941; 254.345; 247.983;   0.068;  12.003;  11.494;   4.380;   4.178;  -4.098;  -0.073;   0.871;;;;;;;;;;;;;;;;;;
2007-05-26T20:52:54.104Z;0;9.9750e+00;0;     0.103;  8108.240;  29498.172; 0;  28361.922;  29498.172;  32704.328;  24596.090; 45;   4.189; 124.725; 282.074; 245.992; 254.395; 248.035;   0.070;  11.992;  11.482;   4.378;   4.177;  -4.097;  -0.075;   0.870;;;;;;;;;;;;;;;;;;
2007-05-26T20:53:02.104Z;0;9.9180e+00;0;     0.099;  8144.640;  29430.582; 0;  28281.160;  29430.582;  32645.170;  24500.531; 45;   4.188; 124.776; 282.124; 246.043; 254.445; 248.086;   0.071;  11.980;  11.470;   4.377;   4.176;  -4.096;  -0.077;   0.869;;;;;;;;;;;;;;;;;;
2007-05-26T20:53:10.104Z;0;1.0000e+01;0;     0.108;  8144.640;  29543.268; 0;  28398.406;  29543.268;  32761.225;  24616.586; 45;   4.187; 124.826; 282.173; 246.094; 254.495; 248.138;   0.073;  11.969;  11.458;   4.375;   4.175;  -4.096;  -0.079;   0.868;;;;;;;;;;;;;;;;;;
2007-05-26T20:53:18.104Z;0;1.0000e+01;0;     0.110;  8144.640;  29542.445; 0;  28397.551;  29542.445;  32760.379;  24615.738; 45;   4.186; 124.877; 282.223; 246.145; 254.545; 248.189;   0.075;  11.957;  11.447;   4.374;   4.174;  -4.095;  -0.080;   0.867;;;;;;;;;;;;;;;;;;
2007-05-26T20:53:34.104Z;0;9.9370e+00;0;     0.100;  8144.640;  29455.498; 0;  28307.088;  29455.498;  32670.834;  24526.193; 45;   4.184; 124.978; 282.321; 246.248; 254.645; 248.293;   0.078;  11.934;  11.423;   4.371;   4.172;  -4.093;  -0.084;   0.865;;;;;;;;;;;;;;;;;;
2007-05-26T20:53:42.104Z;0;1.0000e+01;0;     0.105;  8144.640;  29548.508; 0;  28403.857;  29548.508;  32766.621;  24621.982; 45;   4.183; 125.029; 282.371; 246.299; 254.696; 248.344;   0.080;  11.922;  11.411;   4.370;   4.171;  -4.092;  -0.085;   0.864;;;;;;;;;;;;;;;;;;
2007-05-26T20:53:50.104Z;0;1.0010e+01;0;     0.100;  8144.640;  29561.340; 0;  28417.207;  29561.340;  32779.836;  24635.195; 45;   4.182; 125.079; 282.420; 246.350; 254.746; 248.396;   0.081;  11.910;  11.400;   4.368;   4.170;  -4.091;  -0.087;   0.863;;;;;;;;;;;;;;;;;;
2007-05-26T20:53:58.104Z;0;1.0000e+01;0;     0.099;  8144.640;  29545.072; 0;  28400.283;  29545.072;  32763.084;  24618.443; 45;   4.181; 125.130; 282.470; 246.401; 254.796; 248.447;   0.083;  11.899;  11.388;   4.367;   4.169;  -4.091;  -0.089;   0.862;;;;;;;;;;;;;;;;;;
2007-05-26T20:54:06.103Z;0;1.0040e+01;0;     0.101;  8180.984;  29608.824; 0;  28456.176;  29608.824;  32839.164;  24658.180; 45;   4.180; 125.181; 282.519; 246.452; 254.846; 248.499;   0.084;  11.887;  11.376;   4.366;   4.168;  -4.090;  -0.091;   0.861;;;;;;;;;;;;;;;;;;
2007-05-26T20:54:22.103Z;0;1.0030e+01;0;     0.108;  8180.984;  29586.867; 0;  28433.330;  29586.867;  32816.547;  24635.564; 45;   4.178; 125.282; 282.618; 246.554; 254.946; 248.602;   0.088;  11.864;  11.352;   4.363;   4.167;  -4.088;  -0.094;   0.859;;;;;;;;;;;;;;;;;;
2007-05-26T20:54:30.103Z;0;1.0420e+01;0;     0.116;  8180.984;  30118.363; 0;  28985.984;  30118.363;  33363.680;  25182.693; 45;   4.177; 125.332; 282.667; 246.605; 254.996; 248.653;   0.089;  11.852;  11.340;   4.361;   4.166;  -4.087;  -0.096;   0.858;;;;;;;;;;;;;;;;;;
2007-05-26T20:54:38.103Z;0;9.9590e+00;0;     0.097;  8180.984;  29495.777; 0;  28338.531;  29495.777;  32722.721;  24541.736; 45;   4.176; 125.383; 282.716; 246.656; 255.046; 248.705;   0.091;  11.840;  11.329;   4.360;   4.165;  -4.086;  -0.098;   0.857;;;;;;;;;;;;;;;;;;
2007-05-26T20:54:46.103Z;0;9.9700e+00;0;     0.099;  8180.984;  29511.131; 0;  28354.512;  29511.131;  32738.537;  24557.553; 45;   4.175; 125.433; 282.766; 246.707; 255.096; 248.756;   0.093;  11.829;  11.317;   4.359;   4.164;  -4.086;  -0.099;   0.856;;;;;;;;;;;;;;;;;;
2007-05-26T20:54:54.103Z;0;9.8240e+00;0;     0.102;  8180.984;  29310.740; 0;  28145.887;  29310.740;  32532.066;  24351.082; 45;   4.174; 125.484; 282.815; 246.759; 255.146; 248.808;   0.094;  11.817;  11.305;   4.357;   4.163;  -4.085;  -0.101;   0.855;;;;;;;;;;;;;;;;;;
2007-05-26T20:55:10.103Z;0;9.9360e+00;0;     0.115;  8217.888;  29474.832; 0;  28306.043;  29474.832;  32711.662;  24493.773; 45;   4.172; 125.585; 282.914; 246.861; 255.247; 248.911;   0.098;  11.793;  11.281;   4.354;   4.161;  -4.083;  -0.105;   0.853;;;;;;;;;;;;;;;;;;
2007-05-26T20:55:18.103Z;0;1.0060e+01;0;     0.124;  8217.888;  29638.633; 0;  28476.566;  29638.633;  32880.430;  24662.539; 45;   4.171; 125.635; 282.963; 246.912; 255.297; 248.962;   0.099;  11.782;  11.269;   4.353;   4.160;  -4.082;  -0.106;   0.852;;;;;;;;;;;;;;;;;;
2007-05-26T20:55:42.103Z;0;1.0090e+01;0;     0.113;  8217.888;  29688.393; 0;  28528.354;  29688.393;  32931.684;  24713.797; 45;   4.169; 125.787; 283.111; 247.065; 255.447; 249.116;   0.104;  11.746;  11.234;   4.349;   4.157;  -4.080;  -0.111;   0.849;;;;;;;;;;;;;;;;;;
2007-05-26T20:55:58.103Z;0;1.0020e+01;0;     0.110;  8217.888;  29589.127; 0;  28425.037;  29589.127;  32829.426;  24611.539; 45;   4.167; 125.888; 283.209; 247.167; 255.548; 249.219;   0.107;  11.723;  11.210;   4.346;   4.155;  -4.078;  -0.115;   0.846;;;;;;;;;;;;;;;;;;
2007-05-26T20:56:06.103Z;0;1.0060e+01;0;     0.117;  8254.960;  29650.189; 0;  28477.875;  29650.189;  32902.910;  24647.951; 45;   4.166; 125.938; 283.258; 247.218; 255.598; 249.271;   0.109;  11.711;  11.198;   4.345;   4.154;  -4.077;  -0.117;   0.845;;;;;;;;;;;;;;;;;;
2007-05-26T20:56:14.103Z;0;1.0000e+01;0;     0.123;  8254.960;  29577.295; 0;  28401.973;  29577.295;  32827.797;  24572.836; 45;   4.165; 125.989; 283.307; 247.268; 255.648; 249.322;   0.111;  11.699;  11.186;   4.343;   4.153;  -4.076;  -0.118;   0.844;;;;;;;;;;;;;;;;;;
2007-05-26T20:56:22.103Z;0;9.9850e+00;0;     0.113;  8254.960;  29552.420; 0;  28376.066;  29552.420;  32802.160;  24547.199; 45;   4.164; 126.039; 283.357; 247.319; 255.698; 249.373;   0.112;  11.688;  11.174;   4.342;   4.152;  -4.076;  -0.120;   0.843;;;;;;;;;;;;;;;;;;
2007-05-26T20:56:30.103Z;0;1.0040e+01;0;     0.128;  8254.960;  29628.807; 0;  28455.611;  29628.807;  32880.879;  24625.918; 45;   4.163; 126.089; 283.406; 247.370; 255.748; 249.425;   0.114;  11.676;  11.162;   4.340;   4.151;  -4.075;  -0.122;   0.842;;;;;;;;;;;;;;;;;;
2007-05-26T20:56:46.102Z;0;9.9710e+00;0;     0.114;  8254.960;  29533.643; 0;  28356.510;  29533.643;  32782.809;  24527.848; 45;   4.161; 126.190; 283.504; 247.472; 255.849; 249.527;   0.117;  11.652;  11.138;   4.338;   4.149;  -4.073;  -0.125;   0.840;;;;;;;;;;;;;;;;;;
2007-05-26T20:56:54.102Z;0;9.9910e+00;0;     0.106;  8254.960;  29559.844; 0;  28383.799;  29559.844;  32809.812;  24554.850; 45;   4.160; 126.241; 283.553; 247.523; 255.899; 249.579;   0.119;  11.640;  11.126;   4.336;   4.148;  -4.072;  -0.127;   0.839;;;;;;;;;;;;;;;;;;
2007-05-26T20:57:02.102Z;0;1.0410e+01;0;     0.129;  8292.060;  30141.686; 0;  28978.664;  30141.686;  33419.781;  25127.721; 45;   4.159; 126.291; 283.603; 247.574; 255.949; 249.630;   0.121;  11.628;  11.114;   4.335;   4.147;  -4.071;  -0.129;   0.838;;;;;;;;;;;;;;;;;;
2007-05-26T20:57:10.102Z;0;1.0080e+01;0;     0.115;  8292.060;  29697.664; 0;  28516.539;  29697.664;  32962.391;  24670.330; 45;   4.158; 126.341; 283.652; 247.625; 256.000; 249.681;   0.122;  11.617;  11.102;   4.333;   4.146;  -4.070;  -0.130;   0.837;;;;;;;;;;;;;;;;;;
2007-05-26T20:57:18.102Z;0;1.0100e+01;0;     0.117;  8292.060;  29718.275; 0;  28538.004;  29718.275;  32983.629;  24691.570; 45;   4.157; 126.392; 283.701; 247.676; 256.050; 249.733;   0.124;  11.605;  11.090;   4.332;   4.145;  -4.070;  -0.132;   0.836;;;;;;;;;;;;;;;;;;
2007-05-26T20:57:34.102Z;0;1.0500e+01;0;     0.114;  8292.060;  30258.680; 0;  29100.334;  30258.680;  33540.230;  25248.170; 45;   4.155; 126.492; 283.799; 247.778; 256.150; 249.835;   0.127;  11.581;  11.066;   4.329;   4.143;  -4.068;  -0.136;   0.834;;;;;;;;;;;;;;;;;;
2007-05-26T20:57:42.102Z;0;1.0400e+01;0;     0.107;  8292.060;  30123.645; 0;  28959.898;  30123.645;  33401.203;  25109.145; 45;   4.154; 126.543; 283.848; 247.828; 256.201; 249.887;   0.129;  11.569;  11.054;   4.328;   4.142;  -4.067;  -0.137;   0.833;;;;;;;;;;;;;;;;;;
2007-05-26T20:57:50.102Z;0;1.0150e+01;0;     0.112;  8292.060;  29785.689; 0;  28608.199;  29785.689;  33053.098;  24761.039; 45;   4.153; 126.593; 283.897; 247.879; 256.251; 249.938;   0.130;  11.557;  11.042;   4.326;   4.141;  -4.066;  -0.139;   0.832;;;;;;;;;;;;;;;;;;
2007-05-26T20:57:58.102Z;0;1.0400e+01;0;     0.113;  8292.060;  30128.307; 0;  28964.748;  30128.307;  33406.004;  25113.945; 45;   4.152; 126.643; 283.946; 247.930; 256.301; 249.989;   0.132;  11.545;  11.030;   4.325;   4.140;  -4.065;  -0.141;   0.831;;;;;;;;;;;;;;;;;;
2007-05-26T20:58:06.102Z;0;1.0460e+01;0;     0.117;  8329.412;  30214.809; 0;  29044.027;  30214.809;  33505.809;  25176.396; 45;   4.151; 126.693; 283.995; 247.981; 256.352; 250.040;   0.134;  11.533;  11.018;   4.324;   4.139;  -4.065;  -0.143;   0.830;;;;;;;;;;;;;;;;;;
2007-05-26T20:58:22.102Z;0;1.0130e+01;0;     0.111;  8329.412;  29772.361; 0;  28583.463;  29772.361;  33049.980;  24720.570; 45;   4.149; 126.794; 284.094; 248.082; 256.452; 250.143;   0.137;  11.510;  10.994;   4.321;   4.137;  -4.063;  -0.146;   0.828;;;;;;;;;;;;;;;;;;
2007-05-26T20:58:30.102Z;0;1.0530e+01;0;     0.114;  8329.412;  30306.049; 0;  29138.934;  30306.049;  33599.758;  25270.346; 45;   4.148; 126.844; 284.143; 248.133; 256.503; 250.194;   0.139;  11.498;  10.982;   4.320;   4.136;  -4.062;  -0.148;   0.827;;;;;;;;;;;;;;;;;;
2007-05-26T20:58:38.102Z;0;1.0110e+01;0;     0.112;  8329.412;  29745.840; 0;  28555.838;  29745.840;  33022.645;  24693.232; 45;   4.147; 126.895; 284.192; 248.184; 256.553; 250.245;   0.140;  11.486;  10.970;   4.318;   4.135;  -4.061;  -0.150;   0.826;;;;;;;;;;;;;;;;;;
2007-05-26T20:58:46.102Z;0;1.0390e+01;0;     0.126;  8329.412;  30115.514; 0;  28940.717;  30115.514;  33403.547;  25074.135; 45;   4.146; 126.945; 284.241; 248.235; 256.603; 250.296;   0.142;  11.474;  10.958;   4.317;   4.134;  -4.060;  -0.151;   0.825;;;;;;;;;;;;;;;;;;
2007-05-26T20:58:54.102Z;0;1.0480e+01;0;     0.116;  8329.412;  30240.082; 0;  29070.318;  30240.082;  33531.836;  25202.422; 45;   4.145; 126.995; 284.290; 248.286; 256.654; 250.348;   0.144;  11.462;  10.946;   4.315;   4.133;  -4.059;  -0.153;   0.824;;;;;;;;;;;;;;;;;;
2007-05-26T20:59:10.102Z;0;1.0480e+01;0;     0.117;  8366.932;  30247.082; 0;  29066.826;  30247.082;  33549.805;  25182.871; 45;   4.143; 127.095; 284.388; 248.387; 256.755; 250.450;   0.147;  11.438;  10.921;   4.313;   4.131;  -4.058;  -0.156;   0.822;;;;;;;;;;;;;;;;;;